Location: Heisede
(52.2582°N, 9.8523°E)
Time: 23:28:33
(UTC+00:00)

GEOS 3 Rocket - Pass Details

Date: 13 January 2026
Orbit: 768 x 845 km, 115.0° (Epoch: 17 February)

Event Time Altitude Azimuth Distance (km) Brightness Sun altitude
Rises 03:41:59 0° 123° (ESE) 3,321 7.4 -33.1°
Reaches altitude 10° 03:44:16 10° 120° (ESE) 2,404 6.6 -32.8°
Enters shadow 03:48:28 55° 90° (E) 993 4.2 -32.1°
